| time (UTC) | temp F | wind direction | speed MPH | gust MPH | rain 1hr in | rain 24hr in | rain mn in | humidity % | barometer mb |
| 20260507201753 | 40 | 0.0 | 0.0 | 0.00 | 0.00 | 0.00 | 993.9 | ||
| 20260507200753 | 40 | 0.0 | 0.0 | 0.00 | 0.00 | 0.00 | 993.8 | ||
| 20260507195752 | 40 | 0.0 | 0.0 | 0.00 | 0.00 | 0.00 | 993.8 | ||
| 20260507194752 | 40 | 0.0 | 0.0 | 0.00 | 0.00 | 0.00 | 993.7 | ||
| 20260507193752 | 40 | 0.0 | 0.0 | 0.00 | 0.00 | 0.00 | 993.6 | ||
| 20260507192752 | 41 | 0.0 | 0.0 | 0.00 | 0.00 | 0.00 | 993.6 | ||
| 20260507191751 | 41 | 0.0 | 0.0 | 0.00 | 0.00 | 0.00 | 993.5 | ||
| 20260507190751 | 41 | 0.0 | 0.0 | 0.00 | 0.00 | 0.00 | 993.5 | ||
| 20260507185751 | 41 | 0.0 | 0.0 | 0.00 | 0.00 | 0.00 | 993.4 | ||
| 20260507184751 | 42 | 0.0 | 0.0 | 0.00 | 0.00 | 0.00 | 993.4 | ||
| 20260507183751 | 42 | 0.0 | 0.0 | 0.00 | 0.00 | 0.00 | 993.4 | ||
| 20260507182750 | 42 | 0.0 | 0.0 | 0.00 | 0.00 | 0.00 | 993.4 | ||
| 20260507181750 | 42 | 0.0 | 0.0 | 0.00 | 0.00 | 0.00 | 993.3 | ||
| 20260507180750 | 43 | 0.0 | 0.0 | 0.00 | 0.00 | 0.00 | 993.3 | ||
| 20260507175750 | 44 | 0.0 | 0.0 | 0.00 | 0.00 | 0.00 | 993.3 | ||
| 20260507174749 | 46 | 0.0 | 0.0 | 0.00 | 0.00 | 0.00 | 993.2 | ||
| 20260507173749 | 46 | 0.0 | 0.0 | 0.00 | 0.00 | 0.00 | 993.2 | ||
| 20260507172749 | 45 | 0.0 | 0.0 | 0.00 | 0.00 | 0.00 | 993.2 | ||
| 20260507171749 | 46 | 0.0 | 0.0 | 0.00 | 0.00 | 0.00 | 993.2 | ||
| 20260507170749 | 48 | 0.0 | 0.0 | 0.00 | 0.00 | 0.00 | 993.3 | ||
| 20260507165748 | 52 | 0.0 | 0.0 | 0.00 | 0.00 | 0.00 | 993.4 | ||
| 20260507164748 | 51 | 0.0 | 0.0 | 0.00 | 0.00 | 0.00 | 993.5 | ||
| 20260507163748 | 56 | 0.0 | 0.0 | 0.00 | 0.00 | 0.00 | 993.5 | ||
| 20260507162748 | 54 | 0.0 | 0.0 | 0.00 | 0.00 | 0.00 | 993.4 | ||
| 20260507161748 | 52 | 0.0 | 0.0 | 0.00 | 0.00 | 0.00 | 993.4 | ||
| 20260507160748 | 54 | 0.0 | 0.0 | 0.00 | 0.00 | 0.00 | 993.4 | ||
| 20260507155747 | 53 | 0.0 | 0.0 | 0.00 | 0.00 | 0.00 | 993.3 | ||
| 20260507154747 | 59 | 0.0 | 0.0 | 0.00 | 0.00 | 0.00 | 993.5 | ||
| 20260507153747 | 69 | 0.0 | 0.0 | 0.00 | 0.00 | 0.00 | 993.6 | ||
| 20260507152747 | 67 | 0.0 | 0.0 | 0.00 | 0.00 | 0.00 | 993.6 | ||
| 20260507151746 | 65 | 0.0 | 0.0 | 0.00 | 0.00 | 0.00 | 993.3 | ||
| 20260507150747 | 55 | 0.0 | 0.0 | 0.00 | 0.00 | 0.00 | 992.9 | ||
| 20260507145746 | 42 | 0.0 | 0.0 | 0.00 | 0.00 | 0.00 | 992.8 | ||
| 20260507144746 | 40 | 0.0 | 0.0 | 0.00 | 0.00 | 0.00 | 992.8 | ||
| 20260507143745 | 40 | 0.0 | 0.0 | 0.00 | 0.00 | 0.00 | 992.9 | ||
| 20260507142745 | 40 | 0.0 | 0.0 | 0.00 | 0.00 | 0.00 | 992.9 | ||
| 20260507141745 | 39 | 0.0 | 0.0 | 0.00 | 0.00 | 0.00 | 992.9 | ||
| 20260507140745 | 39 | 0.0 | 0.0 | 0.00 | 0.00 | 0.00 | 993.0 | ||
| 20260507135745 | 40 | 0.0 | 0.0 | 0.00 | 0.00 | 0.00 | 992.9 | ||
| 20260507134744 | 45 | 0.0 | 0.0 | 0.00 | 0.00 | 0.00 | 992.7 | ||
| 20260507133744 | 46 | 0.0 | 0.0 | 0.00 | 0.00 | 0.00 | 992.7 | ||
| 20260507132744 | 46 | 0.0 | 0.0 | 0.00 | 0.00 | 0.00 | 992.7 | ||
| 20260507131744 | 47 | 0.0 | 0.0 | 0.00 | 0.00 | 0.00 | 992.8 | ||
| 20260507130744 | 47 | 0.0 | 0.0 | 0.00 | 0.00 | 0.00 | 992.8 | ||
| 20260507125744 | 48 | 0.0 | 0.0 | 0.00 | 0.00 | 0.00 | 992.9 | ||
| 20260507124743 | 50 | 0.0 | 0.0 | 0.00 | 0.00 | 0.00 | 993.0 | ||
| 20260507123743 | 51 | 0.0 | 0.0 | 0.00 | 0.00 | 0.00 | 993.0 | ||
| 20260507122743 | 51 | 0.0 | 0.0 | 0.00 | 0.00 | 0.00 | 992.9 | ||
| 20260507121743 | 49 | 0.0 | 0.0 | 0.00 | 0.00 | 0.00 | 993.1 | ||
| 20260507120742 | 50 | 0.0 | 0.0 | 0.00 | 0.00 | 0.00 | 993.2 | ||
| 20260507115742 | 51 | 0.0 | 0.0 | 0.00 | 0.00 | 0.00 | 993.1 | ||
| 20260507114742 | 52 | 0.0 | 0.0 | 0.00 | 0.00 | 0.00 | 993.2 | ||
| 20260507113742 | 51 | 0.0 | 0.0 | 0.00 | 0.00 | 0.00 | 993.2 | ||
| 20260507112742 | 50 | 0.0 | 0.0 | 0.00 | 0.00 | 0.00 | 993.2 | ||
| 20260507111741 | 49 | 0.0 | 0.0 | 0.00 | 0.00 | 0.00 | 993.1 | ||
| 20260507110741 | 47 | 0.0 | 0.0 | 0.00 | 0.00 | 0.00 | 992.9 | ||
| 20260507105741 | 46 | 0.0 | 0.0 | 0.00 | 0.00 | 0.00 | 992.9 | ||
| 20260507104741 | 46 | 0.0 | 0.0 | 0.00 | 0.00 | 0.00 | 992.7 | ||
| 20260507103740 | 44 | 0.0 | 0.0 | 0.00 | 0.00 | 0.00 | 992.5 | ||
| 20260507102740 | 44 | 0.0 | 0.0 | 0.00 | 0.00 | 0.00 | 992.4 | ||
| 20260507101740 | 44 | 0.0 | 0.0 | 0.00 | 0.00 | 0.00 | 992.3 | ||
| 20260507100740 | 45 | 0.0 | 0.0 | 0.00 | 0.00 | 0.00 | 992.2 | ||
| 20260507095740 | 45 | 0.0 | 0.0 | 0.00 | 0.00 | 0.00 | 992.1 | ||
| 20260507094740 | 46 | 0.0 | 0.0 | 0.00 | 0.00 | 0.00 | 991.9 | ||
| 20260507093739 | 45 | 0.0 | 0.0 | 0.00 | 0.00 | 0.00 | 991.9 | ||
| 20260507092739 | 45 | 0.0 | 0.0 | 0.00 | 0.00 | 0.00 | 991.8 | ||
| 20260507091739 | 45 | 0.0 | 0.0 | 0.00 | 0.00 | 0.00 | 991.7 | ||
| 20260507090739 | 44 | 0.0 | 0.0 | 0.00 | 0.00 | 0.00 | 991.7 | ||
| 20260507085739 | 46 | 0.0 | 0.0 | 0.00 | 0.00 | 0.00 | 991.7 | ||
| 20260507084738 | 46 | 0.0 | 0.0 | 0.00 | 0.00 | 0.00 | 991.8 | ||
| 20260507083738 | 45 | 0.0 | 0.0 | 0.00 | 0.00 | 0.00 | 991.9 | ||
| 20260507082738 | 45 | 0.0 | 0.0 | 0.00 | 0.00 | 0.00 | 991.6 | ||
| 20260507081738 | 43 | 0.0 | 0.0 | 0.00 | 0.00 | 0.00 | 991.6 | ||
| 20260507080737 | 44 | 0.0 | 0.0 | 0.00 | 0.00 | 0.00 | 991.4 | ||
| 20260507075737 | 43 | 0.0 | 0.0 | 0.00 | 0.00 | 0.00 | 991.3 | ||
| 20260507074737 | 44 | 0.0 | 0.0 | 0.00 | 0.00 | 0.00 | 991.2 | ||
| 20260507073737 | 43 | 0.0 | 0.0 | 0.00 | 0.00 | 0.00 | 991.2 | ||
| 20260507072737 | 43 | 0.0 | 0.0 | 0.00 | 0.00 | 0.00 | 991.2 | ||
| 20260507071736 | 42 | 0.0 | 0.0 | 0.00 | 0.00 | 0.00 | 991.0 | ||
| 20260507070736 | 42 | 0.0 | 0.0 | 0.00 | 0.00 | 0.00 | 991.0 | ||
| 20260507065736 | 41 | 0.0 | 0.0 | 0.00 | 0.00 | 0.00 | 990.9 | ||
| 20260507064736 | 41 | 0.0 | 0.0 | 0.00 | 0.00 | 0.00 | 990.9 | ||
| 20260507063736 | 40 | 0.0 | 0.0 | 0.00 | 0.00 | 0.00 | 990.9 | ||
| 20260507062736 | 40 | 0.0 | 0.0 | 0.00 | 0.00 | 0.00 | 990.8 | ||
| 20260507061735 | 40 | 0.0 | 0.0 | 0.00 | 0.00 | 0.00 | 990.8 | ||
| 20260507060735 | 39 | 0.0 | 0.0 | 0.00 | 0.00 | 0.00 | 990.7 | ||
| 20260507055735 | 39 | 0.0 | 0.0 | 0.00 | 0.00 | 0.00 | 990.7 | ||
| 20260507054734 | 38 | 0.0 | 0.0 | 0.00 | 0.00 | 0.00 | 990.7 | ||
| 20260507053734 | 38 | 0.0 | 0.0 | 0.00 | 0.00 | 0.00 | 990.7 | ||
| 20260507052734 | 37 | 0.0 | 0.0 | 0.00 | 0.00 | 0.00 | 990.7 | ||
| 20260507051734 | 37 | 0.0 | 0.0 | 0.00 | 0.00 | 0.00 | 990.6 | ||
| 20260507050734 | 36 | 0.0 | 0.0 | 0.00 | 0.00 | 0.00 | 990.6 | ||
| 20260507045733 | 36 | 0.0 | 0.0 | 0.00 | 0.00 | 0.00 | 990.4 | ||
| 20260507044733 | 35 | 0.0 | 0.0 | 0.00 | 0.00 | 0.00 | 990.4 | ||
| 20260507043733 | 35 | 0.0 | 0.0 | 0.00 | 0.00 | 0.00 | 990.5 | ||
| 20260507042733 | 34 | 0.0 | 0.0 | 0.00 | 0.00 | 0.00 | 990.5 | ||
| 20260507041732 | 33 | 0.0 | 0.0 | 0.00 | 0.00 | 0.00 | 990.4 | ||
| 20260507040732 | 33 | 0.0 | 0.0 | 0.00 | 0.00 | 0.00 | 990.4 | ||
| 20260507035732 | 32 | 0.0 | 0.0 | 0.00 | 0.00 | 0.00 | 990.4 | ||
| 20260507034732 | 31 | 0.0 | 0.0 | 0.00 | 0.00 | 0.00 | 990.3 | ||
| 20260507033731 | 31 | 0.0 | 0.0 | 0.00 | 0.00 | 0.00 | 990.2 | ||
| 20260507032731 | 31 | 0.0 | 0.0 | 0.00 | 0.00 | 0.00 | 990.2 | ||
| 20260507031731 | 30 | 0.0 | 0.0 | 0.00 | 0.00 | 0.00 | 990.1 | ||
| 20260507030731 | 30 | 0.0 | 0.0 | 0.00 | 0.00 | 0.00 | 990.1 | ||
| 20260507025730 | 29 | 0.0 | 0.0 | 0.00 | 0.00 | 0.00 | 990.0 | ||
| 20260507024730 | 29 | 0.0 | 0.0 | 0.00 | 0.00 | 0.00 | 990.1 | ||
| 20260507023730 | 29 | 0.0 | 0.0 | 0.00 | 0.00 | 0.00 | 990.0 | ||
| 20260507022730 | 29 | 0.0 | 0.0 | 0.00 | 0.00 | 0.00 | 989.8 | ||
| 20260507021729 | 29 | 0.0 | 0.0 | 0.00 | 0.00 | 0.00 | 989.8 | ||
| 20260507020729 | 29 | 0.0 | 0.0 | 0.00 | 0.00 | 0.00 | 989.8 | ||
| 20260507015729 | 29 | 0.0 | 0.0 | 0.00 | 0.00 | 0.00 | 989.8 | ||
| 20260507014729 | 29 | 0.0 | 0.0 | 0.00 | 0.00 | 0.00 | 989.8 | ||
| 20260507013728 | 29 | 0.0 | 0.0 | 0.00 | 0.00 | 0.00 | 989.8 | ||
| 20260507012728 | 29 | 0.0 | 0.0 | 0.00 | 0.00 | 0.00 | 989.8 | ||
| 20260507011728 | 29 | 0.0 | 0.0 | 0.00 | 0.00 | 0.00 | 989.6 | ||
| 20260507010728 | 29 | 0.0 | 0.0 | 0.00 | 0.00 | 0.00 | 989.6 | ||
| 20260507005728 | 29 | 0.0 | 0.0 | 0.00 | 0.00 | 0.00 | 989.6 | ||
| 20260507004727 | 29 | 0.0 | 0.0 | 0.00 | 0.00 | 0.00 | 989.6 | ||
| 20260507003727 | 29 | 0.0 | 0.0 | 0.00 | 0.00 | 0.00 | 989.6 | ||
| 20260507002727 | 29 | 0.0 | 0.0 | 0.00 | 0.00 | 0.00 | 989.5 | ||
| 20260507001727 | 29 | 0.0 | 0.0 | 0.00 | 0.00 | 0.00 | 989.4 | ||
| 20260507000726 | 29 | 0.0 | 0.0 | 0.00 | 0.00 | 0.00 | 989.3 | ||
| 20260506235726 | 29 | 0.0 | 0.0 | 0.00 | 0.00 | 0.00 | 989.4 | ||
| 20260506234726 | 29 | 0.0 | 0.0 | 0.00 | 0.00 | 0.00 | 989.3 | ||
| 20260506233726 | 29 | 0.0 | 0.0 | 0.00 | 0.00 | 0.00 | 989.2 | ||
| 20260506232725 | 30 | 0.0 | 0.0 | 0.00 | 0.00 | 0.00 | 989.3 | ||
| 20260506231725 | 30 | 0.0 | 0.0 | 0.00 | 0.00 | 0.00 | 989.3 | ||
| 20260506230725 | 30 | 0.0 | 0.0 | 0.00 | 0.00 | 0.00 | 989.1 | ||
| 20260506225725 | 30 | 0.0 | 0.0 | 0.00 | 0.00 | 0.00 | 989.0 | ||
| 20260506224725 | 30 | 0.0 | 0.0 | 0.00 | 0.00 | 0.00 | 989.0 | ||
| 20260506223724 | 30 | 0.0 | 0.0 | 0.00 | 0.00 | 0.00 | 989.0 | ||
| 20260506222724 | 30 | 0.0 | 0.0 | 0.00 | 0.00 | 0.00 | 988.8 | ||
| 20260506221724 | 30 | 0.0 | 0.0 | 0.00 | 0.00 | 0.00 | 988.8 | ||
| 20260506220724 | 31 | 0.0 | 0.0 | 0.00 | 0.00 | 0.00 | 988.6 | ||
| 20260506215723 | 31 | 0.0 | 0.0 | 0.00 | 0.00 | 0.00 | 988.7 | ||
| 20260506214723 | 31 | 0.0 | 0.0 | 0.00 | 0.00 | 0.00 | 988.7 | ||
| 20260506213723 | 31 | 0.0 | 0.0 | 0.00 | 0.00 | 0.00 | 988.7 | ||
| 20260506212723 | 31 | 0.0 | 0.0 | 0.00 | 0.00 | 0.00 | 988.6 | ||
| 20260506211722 | 32 | 0.0 | 0.0 | 0.00 | 0.00 | 0.00 | 988.5 | ||
| 20260506210722 | 32 | 0.0 | 0.0 | 0.00 | 0.00 | 0.00 | 988.6 | ||
| 20260506205722 | 33 | 0.0 | 0.0 | 0.00 | 0.00 | 0.00 | 988.4 | ||
| 20260506204722 | 33 | 0.0 | 0.0 | 0.00 | 0.00 | 0.00 | 988.4 | ||
| 20260506203722 | 33 | 0.0 | 0.0 | 0.00 | 0.00 | 0.00 | 988.3 | ||
| 20260506202721 | 33 | 0.0 | 0.0 | 0.00 | 0.00 | 0.00 | 988.2 |